This demonstration page uses our WeatherBlox Daily Observations layout. Learn more.

Left ArrowRight Arrow

40.92501, -98.34201

Hourly Observations for January 26, 2022

Temp ( °F °C ) Dew Point ( °F °C ) Humidity (%) Winds ( mph kmh ) Pressure ( in mb ) Visibility ( mi km ) Precip ( " mm )
12:53 am 00:53 Cloudy 20 -6.7 13 -10.6 74 74 SSW 8 13 30.51 1033 10 16 0.00 0.00
1:53 am 01:53 Cloudy 20 -6.7 13 -10.6 74 74 SSW 10 17 30.49 1033 10 16 0.00 0.00
2:23 am 02:23 Cloudy 18 -7.8 12 -11.1 77 77 SSW 10 17 30.52 1033 10 16 0.00 0.00
2:53 am 02:53 Cloudy 19 -7.2 13 -10.6 77 77 SSW 7 11 30.46 1032 10 16 0.00 0.00
3:53 am 03:53 Cloudy 20 -6.7 13 -10.6 74 74 SSW 10 17 30.44 1031 10 16 0.00 0.00
4:53 am 04:53 Mostly Cloudy 19 -7.2 12 -11.1 74 74 SSW 12 19 30.40 1029 10 16 0.00 0.00
5:00 am 05:00 Partly Cloudy 19 -7.2 12 -11.1 74 74 SSW 15 24 30.44 1031 10 16 0.00 0.00
5:53 am 05:53 Clear 17 -8.3 12 -11.1 80 80 SSW 13 20 30.39 1029 10 16 0.00 0.00
6:53 am 06:53 Clear 17 -8.3 12 -11.1 80 80 SSW 14 22 30.38 1029 10 16 0.00 0.00
7:53 am 07:53 Sunny 17 -8.3 12 -11.1 80 80 SSW 15 24 30.37 1028 10 16 0.00 0.00
8:53 am 08:53 Sunny 19 -7.2 13 -10.6 77 77 SSW 16 26 30.34 1028 10 16 0.00 0.00
9:31 am 09:31 Mostly Cloudy 21 -6.1 14 -10 74 74 SW 22 35 30.37 1028 10 16 0.00 0.00
9:53 am 09:53 Mostly Cloudy 24 -4.4 16 -8.9 71 71 SW 17 28 30.32 1027 10 16 0.00 0.00
10:00 am 10:00 Mostly Cloudy 24 -4.4 16 -8.9 71 71 SW 17 28 30.35 1028 10 16 0.00 0.00
10:09 am 10:09 Mostly Sunny 24 -4.4 16 -8.9 71 71 SW 20 31 30.34 1027 10 16 0.00 0.00
10:53 am 10:53 Sunny 27 -2.8 17 -8.3 66 66 SW 22 35 30.30 1026 10 16 0.00 0.00
11:53 am 11:53 Sunny 31 -0.6 19 -7.2 61 61 SW 22 35 30.25 1024 10 16 0.00 0.00
12:53 pm 12:53 Sunny 35 1.7 20 -6.7 54 54 SSW 20 31 30.19 1022 10 16 0.00 0.00
1:53 pm 13:53 Sunny 37 2.8 21 -6.1 52 52 SSW 24 39 30.14 1021 10 16 0.00 0.00
2:53 pm 14:53 Sunny 39 3.9 21 -6.1 48 48 SW 28 44 30.10 1019 10 16 0.00 0.00
3:53 pm 15:53 Sunny 39 3.9 22 -5.6 50 50 SW 28 44 30.08 1019 10 16 0.00 0.00
4:53 pm 16:53 Sunny 36 2.2 22 -5.6 57 57 SW 21 33 30.09 1019 10 16 0.00 0.00
5:53 pm 17:53 Clear 34 1.1 22 -5.6 61 61 SW 17 28 30.10 1019 10 16 0.00 0.00
6:53 pm 18:53 Clear 32 0 21 -6.1 64 64 SW 18 30 30.11 1020 10 16 0.00 0.00
7:53 pm 19:53 Clear 31 -0.6 21 -6.1 67 67 SW 21 33 30.11 1020 10 16 0.00 0.00
8:53 pm 20:53 Clear 30 -1.1 21 -6.1 69 69 SW 17 28 30.11 1020 10 16 0.00 0.00
9:53 pm 21:53 Clear 28 -2.2 20 -6.7 72 72 WSW 16 26 30.13 1020 10 16 0.00 0.00
10:53 pm 22:53 Clear 27 -2.8 20 -6.7 75 75 WSW 14 22 30.14 1021 10 16 0.00 0.00
11:53 pm 23:53 Clear 25 -3.9 19 -7.2 78 78 WSW 9 15 30.16 1021 10 16 0.00 0.00

Powered by AerisWeather